User: anonymous   Login
Location: Caltech
(34.1382°N, 118.1253°W)
Time: 23:02:50
(UTC-07:00)
Language:

Meteor 1-11 Rocket - Orbit

View from above orbital plane
View from above orbital plane
View from above satellite
View from above satellite

Ground track
Ground track

The orbit data is extracted from the following two-line orbital elements,

1 05918U 72022B   16119.20796401  .00000085  00000-0  43747-4 0  9995
2 05918  81.2391   7.3086 0059374  53.2074 307.4522 14.05798816259695
Epoch (UTC): 28 April 2016 04:59:28
Eccentricity: 0.0059374
inclination: 81.2391°
perigee height: 831 km
apogee height: 917 km
right ascension of ascending node: 7.3086°
argument of perigee: 53.2074°
revolutions per day: 14.05798816
mean anomaly at epoch: 307.4522°
orbit number at epoch: 25969

The dashed part of the orbit path shows where the satellite is in the earth's shadow,  

DLR